• In Belgium
  • List of Countries
  • For 7 days
  • Water Temperature
  • Satellite Maps
  • Weather Map
  • Weather Widgets
  • user-avatar
    Login

    Hourly Weather Wiktoria

    Today, 22 November, Wednesday

    Time Temperature Precipitation Wind Pressure Humidity
    00:00 +21°C° 0.5 mm 2 mps 751 mmHg 64%
    01:00 +20°C° 0.5 mm 2 mps 750 mmHg 69%
    02:00 +19°C° 0.1 mm 2 mps 750 mmHg 71%
    03:00 +18°C° 0.1 mm 3 mps 751 mmHg 72%
    04:00 +17°C° 0 mm 3 mps 751 mmHg 72%
    05:00 +18°C° 0 mm 3 mps 751 mmHg 70%
    06:00 +18°C° 0 mm 4 mps 751 mmHg 68%
    07:00 +19°C° 0 mm 4 mps 751 mmHg 66%
    08:00 +21°C° 0 mm 4 mps 751 mmHg 59%
    09:00 +25°C° 0 mm 4 mps 751 mmHg 52%
    10:00 +27°C° 0 mm 4 mps 751 mmHg 45%
    11:00 +28°C° 0 mm 3 mps 750 mmHg 41%
    12:00 +30°C° 0 mm 2 mps 750 mmHg 37%
    13:00 +31°C° 0 mm 2 mps 749 mmHg 33%
    14:00 +31°C° 0 mm 2 mps 748 mmHg 31%
    15:00 +31°C° 0 mm 2 mps 748 mmHg 30%
    16:00 +32°C° 0 mm 2 mps 747 mmHg 29%
    17:00 +30°C° 0 mm 2 mps 747 mmHg 34%
    18:00 +28°C° 0 mm 1 mps 747 mmHg 39%
    19:00 +26°C° 0 mm 1 mps 747 mmHg 44%
    20:00 +24°C° 0.1 mm 2 mps 748 mmHg 46%
    21:00 +23°C° 0.1 mm 2 mps 748 mmHg 49%
    22:00 +21°C° 0.1 mm 2 mps 748 mmHg 51%
    23:00 +20°C° 0 mm 2 mps 748 mmHg 54%

    Tomorrow, 23 November, Thursday

    Time Temperature Precipitation Wind Pressure Humidity
    00:00 +20°C° 0 mm 2 mps 748 mmHg 57%
    01:00 +19°C° 0 mm 2 mps 747 mmHg 59%
    02:00 +19°C° 0 mm 3 mps 747 mmHg 61%
    03:00 +18°C° 0 mm 3 mps 747 mmHg 63%
    04:00 +18°C° 0 mm 4 mps 747 mmHg 65%
    05:00 +19°C° 0 mm 4 mps 747 mmHg 65%
    06:00 +19°C° 0 mm 4 mps 748 mmHg 65%
    07:00 +20°C° 0 mm 5 mps 748 mmHg 65%
    08:00 +23°C° 0 mm 5 mps 748 mmHg 58%
    09:00 +26°C° 0 mm 5 mps 748 mmHg 51%
    10:00 +28°C° 0 mm 4 mps 748 mmHg 44%
    11:00 +30°C° 0 mm 4 mps 747 mmHg 38%
    12:00 +31°C° 0 mm 3 mps 747 mmHg 33%
    13:00 +34°C° 0 mm 2 mps 746 mmHg 27%
    14:00 +34°C° 0 mm 2 mps 746 mmHg 27%
    15:00 +32°C° 0 mm 2 mps 746 mmHg 27%
    16:00 +32°C° 0 mm 2 mps 745 mmHg 27%
    17:00 +30°C° 0 mm 2 mps 745 mmHg 32%
    18:00 +28°C° 0 mm 2 mps 745 mmHg 38%
    19:00 +26°C° 0 mm 2 mps 745 mmHg 43%
    20:00 +25°C° 0 mm 2 mps 746 mmHg 45%
    21:00 +24°C° 0 mm 3 mps 746 mmHg 47%
    22:00 +24°C° 0 mm 3 mps 747 mmHg 48%
    23:00 +22°C° 0 mm 3 mps 747 mmHg 50%

    Day after tomorrow, 24 November, Friday

    Time Temperature Precipitation Wind Pressure Humidity
    00:00 +22°C° 0 mm 3 mps 747 mmHg 52%
    01:00 +21°C° 0 mm 4 mps 747 mmHg 54%
    02:00 +20°C° 0.3 mm 4 mps 747 mmHg 61%
    03:00 +19°C° 0.3 mm 4 mps 747 mmHg 69%
    04:00 +18°C° 0.3 mm 4 mps 747 mmHg 76%
    05:00 +19°C° 0 mm 4 mps 747 mmHg 72%
    06:00 +20°C° 0 mm 4 mps 748 mmHg 69%
    07:00 +21°C° 0 mm 4 mps 748 mmHg 66%
    08:00 +25°C° 0 mm 4 mps 748 mmHg 55%
    09:00 +28°C° 0 mm 4 mps 748 mmHg 45%
    10:00 +32°C° 0 mm 4 mps 748 mmHg 35%
    11:00 +33°C° 0 mm 3 mps 748 mmHg 31%
    12:00 +34°C° 0 mm 3 mps 748 mmHg 26%
    13:00 +35°C° 0 mm 3 mps 747 mmHg 22%
    14:00 +35°C° 0 mm 3 mps 747 mmHg 22%
    15:00 +35°C° 0 mm 3 mps 747 mmHg 23%
    16:00 +35°C° 0 mm 3 mps 746 mmHg 23%
    17:00 +32°C° 0 mm 2 mps 747 mmHg 27%
    18:00 +30°C° 0 mm 2 mps 747 mmHg 30%
    19:00 +28°C° 0 mm 2 mps 747 mmHg 34%
    20:00 +27°C° 0 mm 2 mps 747 mmHg 36%
    21:00 +26°C° 0 mm 2 mps 748 mmHg 37%
    22:00 +24°C° 0 mm 2 mps 748 mmHg 39%
    23:00 +24°C° 0 mm 2 mps 748 mmHg 42%

    25 November, Saturday

    Time Temperature Precipitation Wind Pressure Humidity
    00:00 +23°C° 0 mm 2 mps 748 mmHg 44%
    01:00 +21°C° 0 mm 2 mps 748 mmHg 47%
    02:00 +20°C° 0.1 mm 2 mps 748 mmHg 53%
    03:00 +19°C° 0.1 mm 2 mps 748 mmHg 59%
    04:00 +18°C° 0.1 mm 2 mps 748 mmHg 65%
    05:00 +20°C° 0 mm 2 mps 749 mmHg 62%
    06:00 +21°C° 0 mm 3 mps 749 mmHg 60%
    07:00 +22°C° 0 mm 3 mps 749 mmHg 58%
    08:00 +25°C° 0 mm 3 mps 749 mmHg 53%
    09:00 +27°C° 0 mm 3 mps 749 mmHg 48%
    10:00 +28°C° 0 mm 3 mps 749 mmHg 43%
    11:00 +30°C° 0 mm 4 mps 748 mmHg 38%
    12:00 +33°C° 0 mm 4 mps 748 mmHg 33%
    13:00 +34°C° 0 mm 5 mps 747 mmHg 28%
    14:00 +34°C° 0 mm 4 mps 747 mmHg 28%
    15:00 +34°C° 0 mm 3 mps 747 mmHg 29%
    16:00 +32°C° 0 mm 2 mps 746 mmHg 30%
    17:00 +31°C° 0 mm 3 mps 746 mmHg 35%
    18:00 +29°C° 0 mm 3 mps 746 mmHg 40%
    19:00 +27°C° 0 mm 4 mps 747 mmHg 45%
    20:00 +26°C° 0.2 mm 4 mps 747 mmHg 51%
    21:00 +25°C° 0.2 mm 4 mps 747 mmHg 57%
    22:00 +23°C° 0.2 mm 4 mps 747 mmHg 62%
    23:00 +22°C° 0.4 mm 4 mps 747 mmHg 68%

    26 November, Sunday

    Time Temperature Precipitation Wind Pressure Humidity
    00:00 +21°C° 0.4 mm 3 mps 747 mmHg 73%
    01:00 +20°C° 0.4 mm 3 mps 746 mmHg 78%
    02:00 +20°C° 0.1 mm 3 mps 746 mmHg 80%
    03:00 +19°C° 0.1 mm 3 mps 746 mmHg 82%
    04:00 +19°C° 0.1 mm 3 mps 746 mmHg 83%
    05:00 +20°C° 0 mm 3 mps 746 mmHg 80%
    06:00 +21°C° 0 mm 4 mps 746 mmHg 76%
    07:00 +22°C° 0 mm 4 mps 747 mmHg 72%
    08:00 +25°C° 0 mm 4 mps 747 mmHg 62%
    09:00 +28°C° 0 mm 4 mps 746 mmHg 52%
    10:00 +32°C° 0 mm 4 mps 746 mmHg 42%
    11:00 +33°C° 0 mm 5 mps 746 mmHg 37%
    12:00 +35°C° 0 mm 5 mps 746 mmHg 32%
    13:00 +36°C° 0 mm 6 mps 745 mmHg 27%
    14:00 +35°C° 0 mm 5 mps 745 mmHg 29%
    15:00 +34°C° 0 mm 4 mps 745 mmHg 31%
    16:00 +33°C° 0 mm 3 mps 745 mmHg 34%
    17:00 +32°C° 0 mm 4 mps 745 mmHg 38%
    18:00 +29°C° 0 mm 4 mps 746 mmHg 43%
    19:00 +28°C° 0 mm 4 mps 746 mmHg 47%
    20:00 +26°C° 0 mm 4 mps 747 mmHg 57%
    21:00 +23°C° 0 mm 5 mps 748 mmHg 68%
    22:00 +21°C° 0 mm 5 mps 748 mmHg 78%
    23:00 +20°C° 0 mm 5 mps 748 mmHg 81%

    27 November, Monday

    Time Temperature Precipitation Wind Pressure Humidity
    00:00 +19°C° 0 mm 4 mps 748 mmHg 84%
    01:00 +18°C° 0 mm 4 mps 748 mmHg 86%
    02:00 +17°C° 0 mm 3 mps 748 mmHg 88%
    03:00 +17°C° 0 mm 3 mps 748 mmHg 90%
    04:00 +16°C° 0 mm 3 mps 748 mmHg 92%
    05:00 +17°C° 0 mm 4 mps 749 mmHg 86%
    06:00 +18°C° 0 mm 4 mps 749 mmHg 79%
    07:00 +20°C° 0 mm 5 mps 750 mmHg 73%
    08:00 +22°C° 0 mm 5 mps 750 mmHg 64%
    09:00 +25°C° 0 mm 5 mps 750 mmHg 55%
    10:00 +26°C° 0 mm 5 mps 750 mmHg 47%
    11:00 +28°C° 0 mm 5 mps 750 mmHg 42%
    12:00 +29°C° 0 mm 5 mps 749 mmHg 38%
    13:00 +30°C° 0 mm 5 mps 749 mmHg 34%
    14:00 +30°C° 0 mm 5 mps 749 mmHg 35%
    15:00 +30°C° 0 mm 6 mps 748 mmHg 35%
    16:00 +30°C° 0 mm 6 mps 748 mmHg 36%
    17:00 +28°C° 0 mm 6 mps 749 mmHg 41%
    18:00 +26°C° 0 mm 6 mps 749 mmHg 47%
    19:00 +23°C° 0 mm 6 mps 750 mmHg 52%
    20:00 +22°C° 0 mm 6 mps 750 mmHg 56%
    21:00 +20°C° 0 mm 6 mps 751 mmHg 61%
    22:00 +19°C° 0 mm 5 mps 751 mmHg 65%
    23:00 +17°C° 0 mm 5 mps 751 mmHg 70%
    Show more